Flag for Germany Weather past 2 weeks in Schwerin, Mecklenburg-Western Pomerania, Germany

Now
51 °F

Overcast.


Feels Like: 51 °F
Forecast: 42 / 57 °F
Wind: 2 mph from Southwest

Location: Schwerin

Current Time: May 25, 2015 at 8:26:43 AM

Latest Report: May 25, 2015 at 8:00 AM


Visibility: 10 mi

Pressure: 29.93 "Hg

Humidity: 83%

Dew point: 46 °F

Location of SchwerinLocation

Historic Weather in Schwerin — Graph

°F

Schwerin temperature yesterday

Maximum temperature yesterday: 66 °F (at 6:00 PM)
Minimum temperature yesterday: 42 °F (at 3:00 AM)
Average temperature yesterday: 54 °F

Past Weeks' High & Low Weather Summary

 TemperatureHumidityPressure
High75 °F (May 12, 3:00 PM)98% (May 25, 4:00 AM)30.36 "Hg (May 25, 4:00 AM)
Low40 °F (May 16, 4:00 AM)36% (May 24, 6:00 PM)29.58 "Hg (May 19, 5:00 AM)
Average52 °F71%30.04 "Hg
* Reported May 10 7:00 AM — May 25 7:00 AM, Schwerin, Weather by CustomWeather, © 2015

Note: Actual official high and low records may vary slightly from our data, if they occured in-between our weather recording intervals... More about our weather records

Advertising

Schwerin weather history for previous 24 hours

 ConditionsComfort  
Time TempWeatherWind HumidityBarometerVisibility
7:00 AM
Mon, May 25
49 °FOvercast.2 mph90%29.92 "Hg8 mi
6:00 AM47 °FOvercast.3 mph95%29.93 "Hg6 mi
4:00 AM47 °FFog.2 mph98%29.95 "Hg4 mi
3:00 AM48 °FFog.1 mph97%29.96 "Hg4 mi
2:00 AM49 °FPassing clouds.1 mph95%29.97 "Hg7 mi
1:00 AM50 °FPassing clouds.2 mph91%29.98 "Hg7 mi
12:00 AM52 °FPassing clouds.2 mph85%30.00 "Hg9 mi
10:00 PM
Sun, May 24
57 °FPassing clouds.2 mph60%30.00 "Hg19 mi
9:00 PM62 °FPartly sunny.1 mph48%30.00 "Hg17 mi
8:00 PM65 °FOvercast.2 mph37%30.01 "Hg22 mi
7:00 PM66 °FPartly sunny.2 mph37%30.02 "Hg19 mi
6:00 PM66 °FPartly sunny.5 mph36%30.03 "Hg17 mi
4:00 PM64 °FPassing clouds.3 mph43%30.07 "Hg11 mi
3:00 PM63 °FScattered clouds.3 mph44%30.09 "Hg11 mi
2:00 PM61 °FSunny.3 mph51%30.11 "Hg14 mi
1:00 PM59 °FScattered clouds.3 mph56%30.13 "Hg12 mi
12:00 PM57 °FPartly sunny.3 mph60%30.14 "Hg11 mi
10:00 AM52 °FOvercast.3 mph69%30.16 "Hg11 mi
9:00 AM50 °FOvercast.1 mph80%30.16 "Hg12 mi
8:00 AM47 °FOvercast.2 mph86%30.16 "Hg11 mi
Weather by CustomWeather, © 2015

See weather overviewHow to use our weather pages